Location: Br�znic
(45.9167°N, 22.6500°E)
Time: 06:15:55
(UTC+00:00)

Cosmos 1980 Rocket - Pass Details

Date: 03 March 2021
Orbit: 828 x 851 km, 71.0° (Epoch: 10 April)

Event Time Altitude Azimuth Distance (km) Brightness Sun altitude
Rises 17:09:56 0° 239° (WSW) 3,391 6.4 -9.7°
Reaches altitude 10° 17:12:42 10° 250° (WSW) 2,463 5.9 -10.2°
Maximum altitude 17:17:34 29° 310° (NW) 1,509 4.1 -11.0°
Drops below altitude 10° 17:22:30 10° 9° (N) 2,485 4.6 -11.9°
Sets 17:25:18 0° 21° (NNE) 3,427 5.2 -12.4°
